Timeline UpdatesTrip UpdatesNews PostsPvt Posts♥♥Travel TipsAdmin PostsConv PostsFollowed PostsChat RequestsBlog PostsPNR Posts

Disclaimer
Search
 
 
Thu Nov 27, 2014 12:05:13 ISTHomeTrainsΣChainsAtlasPNRForumGalleryNewsFAQTripsMembersLoginFeedback
No Recent News for this Train
Other Trains in the News **new
Latest...
.
Sat Feb 22, 2014 (10:28PM)
⇐ Return Journey: Train# 58111

58112/Itwari-Tatanagar Jn Passenger

Time-Table HAS CHANGED.
Sep 03 2014 (1:12PM)
Change Departure Station:
Change Arrival Station:
Post a Train Travel TipPost a Train Travel Tip **new
Post a Comment/Question/Picture/VideoPost a Comment/Question/Picture/Video
Pantry/Catering
✕ NO Pantry Car
✕ NO Catering
RSA - Rake Sharing
Rake/Coach Composition
ENG:SLR-1 UR-3 SL-4 UR-3 VP-1 SLR-1; Entry# 189608 ; Author: sunilsagitarius
Loco
WAM-4 TATA Shed; Entry# 545455
News    PNR    Forum    Time-Table    Availability    Fare Chart    Map    Arr/Dep History    Trips    Gallery    ΣChains    X/O    Timeline    
Travel Time: 26h 35m    107 halts    Distance: 877 km    Avg Speed: 32 km/hr
Type: Passenger
Zone: SER/South Eastern
Departs @ 21:30 (Avg 5m late)
Platform# ???
SMTWTFS
Itwari/ITR 
Arrives @ 00:05 +2 nights (Avg 3m late)
Platform# 4
SMTWTFS
Tatanagar Junction/TATA 

107 halts. 118 intermediate Stations between Itwari and Tatanagar Junction

Show ALL intermediate Stations  Show Old Time-Table

#TrkCodeStation NameX/OArrivesAvgDepartsAvgHaltPFDay#KmSpeedElevZoneAddress
1/==/ITRItwari (3)»  -21:30+5--10.021306mSECRNagpur, Maharashtra
2/==/KAVKalamna (3)  21:38+821:40+112m--12.851296mSECRNagpur, Maharashtra
3/==/KPKamptee (3)X  21:50 21:49+1421:52 21:51+152m--110.526290mSECRKamptee, Maharashtra
4/==/KNHNKanhan Junction (3)  22:02+1322:04+132m--115.286288mSECRKanhan, Maharashtra
5/==/SALSalwa (2)X  22:08+1822:10+182m--121.066289mSECRNagpur, Maharashtra
6/==/CHCRChacher (3)O  22:16+1922:18+202m--127.563284mSECRNagpur, Maharashtra
7/==/TARTharsa (3)  22:24+2022:26+202m--133.968292mSECRNagpur, Maharashtra
8/==/RRLRewral (2)X  22:31+2222:33+222m--139.577293mSECRNagpur Distt, Maharashtra
9/==/KHATKhat (2)  22:40+2322:42+242m--148.554286mSECRNagpur, Maharashtra
10/==/BRDBhandara Road (3)X  22:53+1322:55+152m--158.454266mSECRState Highway 252 Bhandara District, Maharashtra
11/==/TMRTumsar Road (5)O  23:15+1923:20+185m--176.488267mSECRDistt. Bhandara, Maharashtra
12/==/MNUMundikota (2)X  23:27+2223:29+232m--186.767269mSECRBhandara, Maharashtra
13/==/TROTirora (3)  23:38+2323:40+252m--196.768282mSECRDist Gondia, Maharashtra
14/==/KWNKachewani (3)  23:46+3023:48+312m--1103.672303mSECRKachewani Gondia District, Maharashtra
15/==/GJGangajhari (3)  23:55+3223:57+322m--1111.937315mSECRGondia District, Maharashtra
16/==/GGondia Junction (7)  00:25 00:20+1400:35 00:30+1510m32126.0102316mSECRGondia 441601, Maharashtra
17/==/GDMGudma (2)  00:43 00:37+3800:45 00:39+382m--2137.973323mSECRGondia, Maharashtra
18/==/AGNAmgaon (2)  00:54 00:48+3800:56 00:50+382m--2148.888317mSECRGondia, Maharashtra
19/==/SKSSalekasa (2)X  01:07 01:00+4201:09 01:02+442m--2163.653312mSECRRajnandgaon, Chhattisgarh
20/==/DKSDarekasa (2)  01:22 01:15+4301:24 01:17+442m--2175.166381mSECRRajnandgaon, Chhattisgarh
21/==/BTLBortalao (2)X  01:31 01:24+4401:33 01:26+452m--2182.853409mSECRRajnandgaon, Chhattisgarh
22/==/PJBPaniajob (2)X  01:43 01:36+4501:45 01:38+452m--2191.627363mSECRRajnandgaon, Chhattisgarh
23/==/DGGDongargarh (2)  02:00 01:55+3602:10 02:05+3710m--2199.3130353mSECRDongargarh, Chhattisgarh
24/==/JTRJatkanhar  02:14 02:08+4302:16 02:10+422m--2205.867330mSECRRajnandgaon, Chhattisgarh
25/==/MUAMusra  02:22 02:16+4202:24 02:18+422m--2212.565323mSECRRajnandgaon, Chhattisgarh
26/==/RJNRaj Nandgaon (3)  02:40 02:35+3602:45 02:40+365m--2230.8100313mSECRRajnandgaon, Chhattisgarh
27/==/MUPMurhipar  02:54 02:49+3902:56 02:51+392m--2245.817319mSECRRajnandgaon, Chhattisgarh
28/==/DURGDurg Junction (6)X  03:55 03:45+1204:00 03:50+135m--2261.354299mSECRPh: 91-788-2322059, Chhattisgarh
29/==/BQRBhilai Nagar (2)X  04:06 03:55+1704:07 03:57+161 2m--2265.866298mSECRBhilai, Chhattisgarh
30/==/BPHBBhilai Power House (3)  04:11 04:01+004:13 04:03+02m--2270.256312mSECRBhilai, Chhattisgarh
31/==/BIABhilai (2)  04:18 04:08+2304:20 04:10+232m--2274.952309mSECRBhilai, Chhattisgarh
32/==/DBECDevbaloda Charoda  04:24 04:14-04:26 04:16-2m--2278.322310mSECRBhilai, Chhattisgarh
33/==/KMIKumhari (2)XO  04:46 04:36+1204:48 04:38+142m--2285.820287mSECRKumhari, Chhattisgarh
34/==/RRaipur Junction (6)X  05:15+505:35+720m--2298.252297mSECRRaipur, Chhattisgarh
35/==/WRCWRS Colony PH  05:38-05:40-2m--2300.936286mSECRRaipur, Chhattisgarh
36/==/URKUrkura  05:46 05:45+1205:48 05:47+112m--2303.986275mSECRRaipur, Chhattisgarh
37/==/MDHMandharX  05:55 05:53+1405:56 05:55+141 2m--2312.472281mSECRDonde Kalan, Chhattisgarh
38/==/SLHSiliariX  06:05 06:03+1806:06 06:05+181 2m--2322.063280mSECRBanjari Rd, Chhattisgarh
39/==/BKTHBaikunthX  06:15 06:13+3306:17 06:15+312m--2330.346287mSECRBanjari Rd, Chhattisgarh
40/==/TLDTilda (3)X  06:25 06:23+1706:27 06:25+172m--2336.480293mSECRBanjari Rd, Chhattisgarh
41/==/HNHathbandhX  06:35 06:33+1906:37 06:35+202m--2347.184283mSECRRaipur, Chhattisgarh
42/==/BYTBhatapara (4)X  06:48 06:46+2406:50 06:48+262m--2362.568270mSECRBanjari Road, Chhattisgarh
43/==/NPINipania  07:05 07:01+2807:06 07:03+311 2m--2377.270259mSECRNational Highway 200, Chhattisgarh
44/==/DGSDagoriX  07:15 07:10+3107:16 07:12+311 2m--2385.592254mSECRCollege Road, Chhattisgarh
45/==/BYLBelha  07:21 07:17+3507:23 07:19+352m--2393.158269mSECRCollege Road, Chhattisgarh
46/==/CHBTChakarbhathaX  07:28 07:25-07:30 07:26-2 1m--2399.037285mSECRBilaspur, Chhattisgarh
47/==/DPHDadhapara (3)XO  07:35 07:31+4207:37 07:32+422 1m--2402.08272mSECRBilaspur, Chhattisgarh
48/==/BSPBilaspur Junction (8)X  08:25+1108:40+1515m22408.749271mSECRBilaspur, Chhattisgarh
49/==/GTWGatoraX  08:48+2008:50+202m--2415.157268mSECRBilaspur, Chhattisgarh
50/==/JRMGJairamnagarX  08:58+2109:00+222m--2422.867272mSECRNational Highway 200, Chhattisgarh
51/==/KTSHKotmi Sonar HaltX  09:06-09:08-2m--2429.564266mSECRKotmisunar, Chhattisgarh
52/==/AKTAkaltara (4)X  09:14+2309:16+252m--2435.958284mSECRDist. Janjgir Champa, Chhattisgarh
53/==/KPNAKapan (1)O  09:23 09:24-09:25 09:26-2m12443.654263mSECRNational Highway 200, Chhattisgarh
54/==/NIANaila (3)X  09:34+2509:36+252m--2450.834273mSECRJanjgir, Chhattisgarh
55/==/CPHChampa Junction (3)X  09:55+2710:00+305m--2461.777264mSECRNational Highway 200 (07819-245767), Chhattisgarh
56/==/SGRDSaragaon Road  10:07-10:08-1m--2470.778254mSECRNational Highway 200, Chhattisgarh
57/==/BUABaradwarX  10:12 10:13+2910:14 10:15+292m--2477.261260mSECRJanjgir-Champa, Chhattisgarh
58/==/JDDAJetha  10:21 10:22-10:22 10:23-1m--2484.393244mSECRNational Highway 200, Chhattisgarh
59/==/SKTSakti (4)  10:28+3110:30+342m--2492.156237mSECRJanjgir-Champa, Chhattisgarh
60/==/JDIJharradih  10:41+3410:43+392m--2502.363247mSECRRaigarh, Chhattisgarh
61/==/KHSKharsia  10:48+3910:50+412m--2507.573259mSECRNational Highway 200, Chhattisgarh
62/==/ROBRobertson  10:57+4710:59+492m--2516.077239mSECRRaigarh, Chhattisgarh
63/==/BEFBhupdeopur  11:07 11:06+4611:09 11:08+502m--2525.079243mSECRRaigarh, Chhattisgarh
64/==/KDTRKirodimalnagar (5)O  11:16 11:15+5411:18 11:17+582m--2534.224240mSECRRaigarh, Chhattisgarh
65/==/RIGRaigarh (3)O  11:35+4511:40+515m--2541.497220mSECRRaigarh, Chhattisgarh
66/==/KRLKotarliaO  11:46+1:0911:48+1:102m--2551.273229mSECRRaigarh, Chhattisgarh
67/==/JMGJamga  11:55+1:1311:57+1:232m--2559.772233mSECRJamga Station, Chhattisgarh
68/==/DAODaghoraX  12:08 12:07+1:2412:10 12:09+1:242m--2571.734269mSECRRaigarh, Chhattisgarh
69/==/HGRHimgir  12:23 12:22+1:1912:25 12:24+1:252m--2579.181275mSECRNational Highway 200, Chhattisgarh
70/==/BPHBelpahar (2)  12:35 12:34+1:2612:37 12:36+1:262m--2592.533235mSECRBelpahar, Odisha
71/==/BRJNBrajrajnagar  12:58 12:52+1:2213:00 12:54+1:232m--2601.47212mSECRBrajrajnagar, Odisha
72/==/IBIbXO  13:28 13:18+1:0613:30 13:20+1:082m--2604.17207mSECRJharsuguda, Odisha
73/==/JSGJharsuguda Junction (5)X  14:35+1314:55+2320m--2613.157236mSERJharsuguda, Odisha
74/==/DTVDhutra  15:04+3515:05+381m--2621.747240mSERJharsuguda, Odisha
75/==/PNPLPanpaliX  15:12-15:13-1m--2627.156258mSERJharsuguda, Odisha
76/==/BEHBagdihi (3)O  15:20+3615:21+371m--2633.754257mSERState Highway 24 PH: 06640-286227, Odisha
77/==/DIHDharuadihi  15:28+3715:29+391m--2640.064258mSERSH 24, Odisha
78/==/BMBBamra (3)  15:38+4115:39+451m--2649.656259mSERBamra PH : 06642-229268, Odisha
79/==/TGMTangarmundaX  15:48+4715:49+481m--2658.058264mSERSundargarh, Odisha
80/==/GPHGarpos (3)  15:57+4915:58+531m--2665.847281mSERSundargarh, Odisha
81/==/SOGRSograO  16:04+5416:05+561m--2670.555293mSERState Highway 10, Odisha
82/==/SXNSonakhan  16:12+5916:13+1:011m--2676.955249mSERSundargarh, Odisha
83/==/GPRaj Gangpur (3)  16:21+1:0116:22+1:051m--2684.255237mSERRaj Ganpur, Odisha
84/==/KXNKanshbahal  16:32+1:0516:33+1:091m--2693.453217mSERSundargarh, Odisha
85/==/KLGKalunga  16:41+1:1016:42+1:131m--2700.550203mSERSundargarh, Odisha
86/==/PPOPanposh (2)X  16:51+1:0716:52+1:091m--2708.08190mSERRourkela, Odisha
87/==/ROURourkela Junction (5)  17:40+2618:40+2960m42714.060198mSERRourkela, Odisha
88/==/KCABBondamunda K Cabin new halt!!  18:46+1:0718:47+1:081m--2720.06214mSERRourkela, Odisha
89/==/BNDMBondamunda (2)  18:53+5918:54+591m--2720.541213mSERRourkela, Odisha
90/==/BZRBisra  19:05+5719:06+581m--2728.158224mSERSundargarh, Odisha
91/==/BULBhalulata  19:13+5819:14+591m--2735.050239mSERRourkela, Jharkhand
92/==/JRAJaraikelaX  19:23+5819:24+591m--2742.468215mSERJaraikela Station, Jharkhand
93/==/MOUManoharpurX  19:34+1:0019:35+1:031m--2753.831228mSERManoharpur, Jharkhand
94/==/PSTPosotia (4)X  19:52 19:56+1:0219:53 19:57+1:031m--2764.851279mSERPosotia Station, Jharkhand
95/==/DRWNDerowan P. HaltX  20:01 20:05-20:02 20:06-1m--2771.628275mSERDerowan, Jharkhand
96/==/MXWMahadevsal new halt!!  20:15+5920:16+1:011m--2775.954321mSERMahadevsal, Jharkhand
97/==/GOLGoilkera (2)  20:18 20:22+1:0420:19 20:23+1:051m--2781.351333mSERGoilkera, Jharkhand
98/==/TUXTunia  20:27 20:31+1:0720:28 20:32+1:081m--2788.145297mSERTunia Station, Jharkhand
99/==/SWRSonua  20:36 20:40+5620:37 20:41+571m--2794.169287mSERSonua, Jharkhand
100/==/LPHLotapaharX  20:47 20:51+5920:48 20:52+1:031m--2805.525251mSERLotapahar Station, Jharkhand
101/==/CKPChakradharpur (3)  21:10 21:15+4821:50+3340 35m--2815.164235mSERChakradharpur (West Singhbhum), Jharkhand
102/==/BRMBarabamboX  22:00+3122:01+341m--2825.856213mSERBarabambo Station, Jharkhand
103/==/RKSNRajkharsawan Junction (3)  22:11+2822:12+281m--2835.250189mSERSaraikela Kharswan District, Jharkhand
104/==/MMVMahali Marup (2)  22:21+3722:22+381m--2842.751183mSERMahali Marup Station, Jharkhand
105/==/SINISini Junction (3)  22:31+3222:32+331m22850.448182mSERNational Highway 33, Jharkhand
106/==/BRBSBirbans  22:41-22:42-1m--2857.654171mSERBirbans, Jharkhand
107/==/GMHGamharia (3)  22:52+3222:53+1:021m22866.740165mSERJamshedpur, Jharkhand
108/==/ADTPAdityapur (3)  23:02+023:03+01m22872.74152mSERJamshedpur, Jharkhand
109/==/TATATatanagar Junction (5)•  00:05+3-43877.3-164mSER91-657-2423026, Jharkhand
Scroll to Top
Scroll to Bottom